SL-27 R/B

Last updated on Sat Oct 12 2024 00:02:11 GMT+0000 (Coordinated Universal Time)

1 40354U 14084B 24285.80460336 .05983226 16009-5 33320-3 0 9994 2 40354 74.6879 309.4293 0008611 281.8949 252.8924 16.41684543553081
UTC large
Height (km)
Speed (km/s)
/
Latitude / Longitude
Inclination (degrees)
Orbital Period (minutes)
Azimuth
Elevation
Range (km)
Doppler Factor

Next 0 passes for location: London (51.5072 / 0.1276)

Sorry there are no passes over London.